| time (UTC) | temp F | wind direction | speed MPH | gust MPH | rain 1hr in | rain 24hr in | rain mn in | humidity % | barometer mb |
| 20260506073507 | 45 | 57 | 2.0 | 11.0 | 0.01 | 0.20 | 0.20 | 93 | 1006.3 |
| 20260506073026 | 45 | 74 | 3.0 | 9.0 | 0.01 | 0.19 | 0.19 | 93 | 1006.3 |
| 20260506073021 | 45 | 74 | 3.0 | 9.0 | 0.01 | 0.19 | 0.19 | 93 | 1005.9 |
| 20260506072507 | 45 | 61 | 4.0 | 10.0 | 0.01 | 0.19 | 0.19 | 93 | 1006.3 |
| 20260506072008 | 45 | 67 | 5.0 | 11.0 | 0.01 | 0.19 | 0.19 | 93 | 1006.3 |
| 20260506071525 | 45 | 5 | 4.0 | 13.0 | 0.02 | 0.19 | 0.19 | 93 | 1005.9 |
| 20260506071504 | 45 | 26 | 4.0 | 13.0 | 0.02 | 0.19 | 0.19 | 93 | 1006.2 |
| 20260506071006 | 45 | 16 | 5.0 | 13.0 | 0.02 | 0.19 | 0.19 | 93 | 1006.2 |
| 20260506070506 | 45 | 44 | 4.0 | 17.0 | 0.02 | 0.19 | 0.19 | 93 | 1006.1 |
| 20260506062509 | 46 | 59 | 5.0 | 12.0 | 0.02 | 0.18 | 0.18 | 94 | 1005.9 |
| 20260506062009 | 46 | 46 | 5.0 | 12.0 | 0.02 | 0.18 | 0.18 | 93 | 1005.8 |
| 20260506061516 | 46 | 64 | 5.0 | 11.0 | 0.01 | 0.17 | 0.17 | 93 | 1005.8 |
| 20260506061505 | 46 | 355 | 5.0 | 11.0 | 0.01 | 0.17 | 0.17 | 93 | 1005.6 |
| 20260506061006 | 46 | 24 | 3.0 | 11.0 | 0.01 | 0.17 | 0.17 | 94 | 1005.7 |
| 20260506060506 | 46 | 59 | 5.0 | 13.0 | 0.01 | 0.17 | 0.17 | 94 | 1005.7 |
| 20260506051009 | 47 | 126 | 4.0 | 10.0 | 0.01 | 0.15 | 0.15 | 95 | 1005.4 |
| 20260506050506 | 47 | 71 | 2.0 | 11.0 | 0.01 | 0.15 | 0.15 | 95 | 1005.4 |
| 20260506045007 | 47 | 355 | 4.0 | 10.0 | 0.02 | 0.15 | 0.15 | 96 | 1005.6 |
| 20260506044549 | 47 | 327 | 3.0 | 13.0 | 0.02 | 0.16 | 0.15 | 96 | 1005.5 |
| 20260506044512 | 47 | 5 | 3.0 | 13.0 | 0.02 | 0.16 | 0.15 | 96 | 1005.2 |
| 20260506044005 | 47 | 30 | 3.0 | 13.0 | 0.01 | 0.15 | 0.14 | 96 | 1005.6 |
| 20260506043506 | 47 | 29 | 4.0 | 10.0 | 0.01 | 0.15 | 0.14 | 96 | 1005.6 |
| 20260506043020 | 47 | 17 | 3.0 | 8.0 | 0.02 | 0.15 | 0.14 | 96 | 1005.2 |
| 20260506043016 | 47 | 17 | 3.0 | 8.0 | 0.02 | 0.15 | 0.14 | 96 | 1005.6 |
| 20260506042509 | 47 | 38 | 3.0 | 9.0 | 0.02 | 0.15 | 0.14 | 96 | 1005.6 |
| 20260506042012 | 47 | 335 | 4.0 | 9.0 | 0.02 | 0.15 | 0.14 | 96 | 1005.6 |
| 20260506041522 | 47 | 355 | 4.0 | 10.0 | 0.01 | 0.14 | 0.14 | 95 | 1005.2 |
| 20260506041519 | 47 | 355 | 4.0 | 10.0 | 0.01 | 0.14 | 0.14 | 95 | 1005.6 |
| 20260506041012 | 47 | 355 | 6.0 | 10.0 | 0.02 | 0.15 | 0.14 | 95 | 1005.6 |
| 20260506040510 | 47 | 5 | 4.0 | 8.0 | 0.02 | 0.15 | 0.14 | 95 | 1005.7 |
| 20260506040026 | 47 | 336 | 3.0 | 9.0 | 0.03 | 0.16 | 0.14 | 95 | 1005.3 |
| 20260506040022 | 47 | 336 | 3.0 | 9.0 | 0.03 | 0.16 | 0.14 | 95 | 1005.6 |
| 20260506035506 | 47 | 348 | 4.0 | 9.0 | 0.03 | 0.16 | 0.14 | 95 | 1005.6 |
| 20260506035007 | 47 | 340 | 5.0 | 8.0 | 0.03 | 0.16 | 0.13 | 95 | 1005.7 |
| 20260506034543 | 47 | 348 | 4.0 | 8.0 | 0.03 | 0.16 | 0.13 | 95 | 1005.7 |
| 20260506034506 | 47 | 348 | 4.0 | 8.0 | 0.03 | 0.16 | 0.13 | 95 | 1005.3 |
| 20260506034008 | 47 | 334 | 3.0 | 8.0 | 0.03 | 0.17 | 0.13 | 95 | 1005.8 |
| 20260506033506 | 47 | 342 | 4.0 | 8.0 | 0.03 | 0.17 | 0.13 | 95 | 1005.8 |
| 20260506033021 | 47 | 355 | 3.0 | 10.0 | 0.03 | 0.17 | 0.12 | 95 | 1005.8 |
| 20260506033018 | 47 | 340 | 3.0 | 10.0 | 0.03 | 0.17 | 0.12 | 95 | 1005.5 |
| 20260506032507 | 47 | 344 | 4.0 | 10.0 | 0.03 | 0.17 | 0.12 | 95 | 1005.9 |
| 20260506032008 | 47 | 350 | 3.0 | 10.0 | 0.04 | 0.18 | 0.12 | 95 | 1005.8 |
| 20260506031532 | 47 | 333 | 3.0 | 10.0 | 0.04 | 0.18 | 0.12 | 95 | 1005.5 |
| 20260506031521 | 47 | 333 | 3.0 | 10.0 | 0.04 | 0.18 | 0.12 | 95 | 1005.8 |
| 20260506031008 | 47 | 348 | 4.0 | 10.0 | 0.03 | 0.18 | 0.11 | 95 | 1005.8 |
| 20260506030510 | 47 | 336 | 4.0 | 9.0 | 0.03 | 0.18 | 0.11 | 95 | 1005.9 |
| 20260506030026 | 47 | 340 | 4.0 | 8.0 | 0.03 | 0.19 | 0.11 | 95 | 1005.6 |
| 20260506030019 | 47 | 340 | 4.0 | 8.0 | 0.03 | 0.19 | 0.11 | 95 | 1005.9 |
| 20260506025512 | 47 | 5 | 3.0 | 8.0 | 0.03 | 0.21 | 0.11 | 95 | 1005.9 |
| 20260506025007 | 47 | 343 | 2.0 | 9.0 | 0.03 | 0.21 | 0.10 | 95 | 1005.9 |
| 20260506024529 | 47 | 298 | 3.0 | 12.0 | 0.03 | 0.22 | 0.10 | 95 | 1005.6 |
| 20260506024520 | 47 | 298 | 3.0 | 12.0 | 0.03 | 0.22 | 0.10 | 95 | 1006.0 |
| 20260506024011 | 47 | 338 | 3.0 | 12.0 | 0.03 | 0.22 | 0.09 | 95 | 1006.0 |
| 20260506023513 | 47 | 350 | 3.0 | 10.0 | 0.03 | 0.22 | 0.09 | 95 | 1006.0 |
| 20260506023021 | 47 | 333 | 4.0 | 10.0 | 0.03 | 0.22 | 0.08 | 95 | 1006.0 |
| 20260506023011 | 47 | 333 | 4.0 | 10.0 | 0.03 | 0.22 | 0.08 | 95 | 1005.7 |
| 20260506022510 | 47 | 339 | 5.0 | 9.0 | 0.03 | 0.22 | 0.08 | 95 | 1006.1 |
| 20260506022009 | 47 | 355 | 3.0 | 10.0 | 0.03 | 0.22 | 0.07 | 95 | 1006.1 |
| 20260506021517 | 47 | 355 | 4.0 | 11.0 | 0.03 | 0.23 | 0.07 | 95 | 1006.1 |
| 20260506021009 | 47 | 326 | 4.0 | 12.0 | 0.03 | 0.24 | 0.07 | 95 | 1006.2 |
| 20260506020509 | 48 | 340 | 5.0 | 12.0 | 0.03 | 0.24 | 0.07 | 95 | 1006.1 |
| 20260506020022 | 48 | 107 | 4.0 | 11.0 | 0.03 | 0.24 | 0.07 | 95 | 1005.9 |
| 20260506015504 | 48 | 5 | 2.0 | 11.0 | 0.03 | 0.25 | 0.07 | 95 | 1006.2 |
| 20260506015006 | 48 | 327 | 5.0 | 11.0 | 0.03 | 0.25 | 0.06 | 95 | 1006.2 |
| 20260506014523 | 48 | 281 | 3.0 | 12.0 | 0.03 | 0.26 | 0.06 | 95 | 1006.0 |
| 20260506014504 | 48 | 277 | 3.0 | 12.0 | 0.03 | 0.26 | 0.06 | 95 | 1006.3 |
| 20260506014004 | 48 | 22 | 4.0 | 12.0 | 0.04 | 0.28 | 0.06 | 95 | 1006.3 |
| 20260506013505 | 48 | 44 | 4.0 | 9.0 | 0.03 | 0.29 | 0.05 | 95 | 1006.4 |
| 20260506013010 | 48 | 348 | 4.0 | 10.0 | 0.03 | 0.29 | 0.05 | 95 | 1006.4 |
| 20260506013006 | 48 | 348 | 4.0 | 10.0 | 0.03 | 0.29 | 0.05 | 95 | 1006.1 |
| 20260506012506 | 48 | 36 | 4.0 | 11.0 | 0.04 | 0.30 | 0.05 | 95 | 1006.4 |
| 20260506012007 | 48 | 49 | 4.0 | 11.0 | 0.03 | 0.30 | 0.04 | 95 | 1006.4 |
| 20260506011523 | 48 | 20 | 5.0 | 11.0 | 0.03 | 0.31 | 0.04 | 95 | 1006.4 |
| 20260506011517 | 48 | 102 | 5.0 | 11.0 | 0.03 | 0.31 | 0.04 | 95 | 1006.2 |
| 20260506011009 | 48 | 49 | 2.0 | 11.0 | 0.03 | 0.31 | 0.03 | 95 | 1006.5 |
| 20260506010507 | 48 | 20 | 4.0 | 11.0 | 0.03 | 0.32 | 0.03 | 95 | 1006.5 |
| 20260506010043 | 47 | 38 | 1.0 | 9.0 | 0.03 | 0.31 | 0.03 | 94 | 1006.3 |
| 20260506010018 | 48 | 38 | 1.0 | 9.0 | 0.03 | 0.31 | 0.03 | 94 | 1006.5 |
| 20260506005509 | 47 | 15 | 3.0 | 10.0 | 0.03 | 0.32 | 0.03 | 94 | 1006.6 |
| 20260506005010 | 47 | 355 | 3.0 | 9.0 | 0.02 | 0.31 | 0.02 | 94 | 1006.6 |
| 20260506004534 | 47 | 36 | 3.0 | 11.0 | 0.02 | 0.32 | 0.02 | 94 | 1006.7 |
| 20260506004524 | 47 | 16 | 4.0 | 11.0 | 0.02 | 0.32 | 0.02 | 94 | 1006.4 |
| 20260506004012 | 48 | 5 | 4.0 | 11.0 | 0.01 | 0.32 | 0.01 | 94 | 1006.7 |
| 20260506003504 | 48 | 349 | 4.0 | 11.0 | 0.01 | 0.33 | 0.01 | 94 | 1006.6 |
| 20260506003037 | 48 | 355 | 4.0 | 13.0 | 0.01 | 0.33 | 0.01 | 94 | 1006.7 |
| 20260506003024 | 48 | 348 | 4.0 | 13.0 | 0.01 | 0.33 | 0.01 | 94 | 1006.5 |
| 20260506002511 | 48 | 42 | 4.0 | 13.0 | 0.00 | 0.33 | 0.00 | 94 | 1006.8 |
| 20260506002003 | 48 | 312 | 3.0 | 12.0 | 0.00 | 0.33 | 0.00 | 94 | 1006.8 |
| 20260506001513 | 48 | 13 | 3.0 | 12.0 | 0.00 | 0.34 | 0.00 | 94 | 1006.7 |
| 20260506001004 | 48 | 34 | 3.0 | 11.0 | 0.00 | 0.33 | 0.00 | 94 | 1006.8 |
| 20260506000507 | 48 | 325 | 5.0 | 10.0 | 0.00 | 0.33 | 0.00 | 94 | 1006.8 |
| 20260506000016 | 48 | 44 | 4.0 | 12.0 | 0.00 | 0.34 | 0.00 | 94 | 1006.9 |
| 20260505235508 | 48 | 5 | 2.0 | 12.0 | 0.00 | 0.34 | 0.00 | 94 | 1006.9 |
| 20260505235006 | 48 | 342 | 5.0 | 14.0 | 0.00 | 0.34 | 0.00 | 94 | 1007.0 |
| 20260505234533 | 48 | 53 | 4.0 | 14.0 | 0.00 | 0.35 | 0.00 | 94 | 1007.0 |
| 20260505234519 | 48 | 53 | 4.0 | 14.0 | 0.00 | 0.35 | 0.00 | 94 | 1006.8 |
| 20260505234009 | 48 | 25 | 5.0 | 14.0 | 0.00 | 0.35 | 0.00 | 94 | 1007.1 |
| 20260505233515 | 48 | 36 | 3.0 | 15.0 | 0.00 | 0.35 | 0.00 | 94 | 1007.1 |
| 20260505233024 | 48 | 9 | 7.0 | 15.0 | 0.00 | 0.36 | 0.00 | 94 | 1007.2 |
| 20260505233021 | 48 | 22 | 7.0 | 15.0 | 0.00 | 0.36 | 0.00 | 94 | 1006.9 |
| 20260505232513 | 48 | 23 | 4.0 | 11.0 | 0.00 | 0.36 | 0.00 | 93 | 1007.1 |
| 20260505232004 | 48 | 102 | 4.0 | 10.0 | 0.00 | 0.37 | 0.00 | 93 | 1007.1 |
| 20260505231525 | 48 | 344 | 5.0 | 12.0 | 0.00 | 0.37 | 0.00 | 93 | 1007.0 |
| 20260505231510 | 48 | 5 | 5.0 | 12.0 | 0.00 | 0.37 | 0.00 | 93 | 1007.2 |
| 20260505231003 | 48 | 296 | 3.0 | 12.0 | 0.00 | 0.37 | 0.00 | 93 | 1007.2 |
| 20260505230503 | 48 | 355 | 4.0 | 12.0 | 0.00 | 0.37 | 0.00 | 93 | 1007.2 |
| 20260505230035 | 48 | 360 | 3.0 | 15.0 | 0.00 | 0.37 | 0.00 | 93 | 1007.3 |
| 20260505230016 | 48 | 34 | 3.0 | 15.0 | 0.00 | 0.37 | 0.00 | 93 | 1007.1 |
| 20260505225517 | 48 | 346 | 6.0 | 12.0 | 0.00 | 0.37 | 0.00 | 93 | 1007.4 |
| 20260505225010 | 48 | 9 | 4.0 | 12.0 | 0.00 | 0.37 | 0.00 | 93 | 1007.4 |
| 20260505224525 | 48 | 92 | 5.0 | 12.0 | 0.00 | 0.37 | 0.00 | 92 | 1007.4 |
| 20260505224518 | 48 | 92 | 5.0 | 12.0 | 0.00 | 0.37 | 0.00 | 92 | 1007.2 |
| 20260505224009 | 48 | 54 | 5.0 | 13.0 | 0.00 | 0.37 | 0.00 | 92 | 1007.4 |
| 20260505223510 | 48 | 346 | 4.0 | 15.0 | 0.00 | 0.38 | 0.00 | 92 | 1007.5 |
| 20260505223030 | 48 | 47 | 5.0 | 15.0 | 0.00 | 0.38 | 0.00 | 92 | 1007.4 |
| 20260505223021 | 48 | 36 | 5.0 | 15.0 | 0.00 | 0.38 | 0.00 | 92 | 1007.3 |
| 20260505222510 | 48 | 329 | 6.0 | 15.0 | 0.00 | 0.38 | 0.00 | 92 | 1007.4 |
| 20260505222011 | 48 | 221 | 5.0 | 15.0 | 0.00 | 0.39 | 0.00 | 91 | 1007.5 |
| 20260505221528 | 48 | 323 | 7.0 | 14.0 | 0.00 | 0.39 | 0.00 | 91 | 1007.5 |
| 20260505221509 | 48 | 267 | 8.0 | 15.0 | 0.00 | 0.39 | 0.00 | 91 | 1007.3 |
| 20260505221011 | 48 | 71 | 7.0 | 14.0 | 0.00 | 0.39 | 0.00 | 91 | 1007.5 |
| 20260505220512 | 48 | 21 | 7.0 | 13.0 | 0.00 | 0.39 | 0.00 | 91 | 1007.6 |
| 20260505220038 | 48 | 62 | 4.0 | 15.0 | 0.00 | 0.39 | 0.00 | 91 | 1007.5 |
| 20260505220011 | 48 | 62 | 4.0 | 15.0 | 0.00 | 0.39 | 0.00 | 91 | 1007.4 |
| 20260505215506 | 48 | 20 | 7.0 | 15.0 | 0.00 | 0.39 | 0.39 | 91 | 1007.6 |
| 20260505215006 | 48 | 5 | 7.0 | 13.0 | 0.00 | 0.39 | 0.39 | 90 | 1007.6 |
| 20260505214522 | 49 | 260 | 5.0 | 16.0 | 0.00 | 0.39 | 0.39 | 90 | 1007.6 |
| 20260505214512 | 49 | 260 | 6.0 | 16.0 | 0.00 | 0.39 | 0.39 | 90 | 1007.5 |
| 20260505214007 | 49 | 355 | 6.0 | 16.0 | 0.00 | 0.39 | 0.39 | 90 | 1007.7 |
| 20260505213508 | 49 | 19 | 9.0 | 16.0 | 0.00 | 0.40 | 0.39 | 89 | 1007.6 |
| 20260505213021 | 49 | 344 | 6.0 | 13.0 | 0.00 | 0.40 | 0.39 | 89 | 1007.6 |
| 20260505212515 | 49 | 166 | 4.0 | 12.0 | 0.00 | 0.40 | 0.39 | 89 | 1007.6 |
| 20260505212015 | 49 | 32 | 7.0 | 15.0 | 0.00 | 0.40 | 0.39 | 89 | 1007.7 |
| 20260505211526 | 49 | 115 | 5.0 | 15.0 | 0.00 | 0.40 | 0.39 | 88 | 1007.8 |
| 20260505211508 | 49 | 115 | 6.0 | 15.0 | 0.00 | 0.40 | 0.39 | 88 | 1007.6 |
| 20260505211009 | 49 | 31 | 8.0 | 13.0 | 0.00 | 0.41 | 0.39 | 88 | 1007.7 |
| 20260505210511 | 50 | 90 | 6.0 | 17.0 | 0.00 | 0.41 | 0.39 | 88 | 1007.8 |
| 20260505210026 | 50 | 17 | 6.0 | 14.0 | 0.00 | 0.42 | 0.39 | 88 | 1007.8 |
| 20260505210010 | 50 | 17 | 6.0 | 17.0 | 0.00 | 0.42 | 0.39 | 88 | 1007.7 |
| 20260505205510 | 50 | 340 | 6.0 | 14.0 | 0.00 | 0.42 | 0.39 | 88 | 1007.7 |
| 20260505205010 | 50 | 35 | 6.0 | 14.0 | 0.00 | 0.42 | 0.39 | 87 | 1007.8 |
| 20260505204514 | 50 | 5 | 3.0 | 13.0 | 0.00 | 0.43 | 0.39 | 87 | 1007.8 |
| 20260505204511 | 50 | 5 | 3.0 | 13.0 | 0.00 | 0.43 | 0.39 | 87 | 1007.9 |
| 20260505204011 | 51 | 9 | 7.0 | 12.0 | 0.00 | 0.44 | 0.39 | 87 | 1007.8 |
| 20260505203512 | 51 | 304 | 5.0 | 14.0 | 0.00 | 0.44 | 0.39 | 87 | 1007.9 |
| 20260505203027 | 51 | 51 | 5.0 | 15.0 | 0.00 | 0.44 | 0.39 | 87 | 1007.7 |
| 20260505203018 | 51 | 355 | 5.0 | 15.0 | 0.00 | 0.44 | 0.39 | 87 | 1007.9 |
| 20260505202508 | 51 | 300 | 6.0 | 15.0 | 0.00 | 0.45 | 0.39 | 86 | 1007.9 |
| 20260505202012 | 51 | 349 | 4.0 | 15.0 | 0.00 | 0.46 | 0.39 | 86 | 1007.8 |
| 20260505201525 | 51 | 11 | 6.0 | 15.0 | 0.00 | 0.47 | 0.39 | 86 | 1007.8 |
| 20260505201522 | 51 | 11 | 6.0 | 15.0 | 0.00 | 0.47 | 0.39 | 86 | 1007.6 |
| 20260505201008 | 51 | 355 | 4.0 | 12.0 | 0.00 | 0.48 | 0.39 | 86 | 1007.8 |
| 20260505200510 | 0 | 5 | 3.0 | 0.0 | 0.00 | 0.51 | 0.39 | 1007.9 | |
| 20260505200028 | 51 | 0.0 | 0.0 | 0.00 | 0.51 | 0.39 | 85 | 1007.9 | |
| 20260505195509 | 51 | 22 | 4.0 | 9.0 | 0.00 | 0.53 | 0.39 | 85 | 1007.8 |
| 20260505195016 | 51 | 5.0 | 10.0 | 0.00 | 0.54 | 0.39 | 84 | 1007.8 | |
| 20260505194534 | 52 | 348 | 5.0 | 10.0 | 0.00 | 0.55 | 0.39 | 84 | 1007.8 |
| 20260505194512 | 52 | 16 | 4.0 | 10.0 | 0.00 | 0.55 | 0.39 | 85 | 1007.6 |
| 20260505194011 | 52 | 14 | 5.0 | 8.0 | 0.00 | 0.55 | 0.39 | 84 | 1007.8 |
| 20260505193509 | 52 | 330 | 3.0 | 10.0 | 0.00 | 0.56 | 0.39 | 84 | 1007.8 |
| 20260505193038 | 52 | 49 | 5.0 | 11.0 | 0.00 | 0.56 | 0.39 | 84 | 1007.8 |
| 20260505193016 | 52 | 327 | 5.0 | 12.0 | 0.00 | 0.56 | 0.39 | 84 | 1007.6 |
| 20260505192512 | 52 | 341 | 4.0 | 13.0 | 0.00 | 0.56 | 0.39 | 84 | 1007.7 |
| 20260505192007 | 52 | 12 | 6.0 | 13.0 | 0.00 | 0.56 | 0.39 | 83 | 1007.7 |
| 20260505191541 | 52 | 5.0 | 13.0 | 0.00 | 0.56 | 0.39 | 84 | 1007.7 | |
| 20260505191520 | 52 | 333 | 5.0 | 13.0 | 0.00 | 0.56 | 0.39 | 84 | 1007.5 |
| 20260505191014 | 52 | 40 | 6.0 | 11.0 | 0.00 | 0.56 | 0.39 | 84 | 1007.6 |
| 20260505190508 | 52 | 360 | 7.0 | 10.0 | 0.00 | 0.56 | 0.39 | 84 | 1007.6 |
| 20260505190029 | 52 | 223 | 5.0 | 11.0 | 0.00 | 0.56 | 0.39 | 84 | 1007.3 |
| 20260505185512 | 52 | 76 | 5.0 | 9.0 | 0.00 | 0.56 | 0.39 | 84 | 1007.4 |
| 20260505185010 | 52 | 4.0 | 9.0 | 0.00 | 0.56 | 0.39 | 84 | 1007.5 | |
| 20260505184527 | 52 | 346 | 4.0 | 9.0 | 0.00 | 0.56 | 0.39 | 85 | 1007.5 |
| 20260505184014 | 52 | 19 | 3.0 | 9.0 | 0.00 | 0.56 | 0.39 | 85 | 1007.5 |
| 20260505183511 | 52 | 350 | 2.0 | 8.0 | 0.00 | 0.56 | 0.39 | 85 | 1007.5 |
| 20260505183028 | 52 | 336 | 4.0 | 10.0 | 0.00 | 0.56 | 0.39 | 85 | 1007.5 |
| 20260505182511 | 52 | 27 | 5.0 | 10.0 | 0.00 | 0.56 | 0.39 | 85 | 1007.5 |
| 20260505182008 | 52 | 340 | 2.0 | 9.0 | 0.00 | 0.56 | 0.39 | 85 | 1007.4 |
| 20260505181516 | 52 | 350 | 5.0 | 10.0 | 0.00 | 0.56 | 0.39 | 85 | 1007.5 |
| 20260505181514 | 52 | 355 | 5.0 | 10.0 | 0.00 | 0.56 | 0.39 | 85 | 1007.3 |
| 20260505181010 | 52 | 355 | 3.0 | 10.0 | 0.00 | 0.56 | 0.39 | 86 | 1007.5 |
| 20260505180507 | 52 | 350 | 4.0 | 8.0 | 0.00 | 0.56 | 0.39 | 86 | 1007.5 |
| 20260505180026 | 52 | 338 | 2.0 | 9.0 | 0.00 | 0.56 | 0.39 | 86 | 1007.3 |
| 20260505180004 | 52 | 338 | 2.0 | 9.0 | 0.00 | 0.56 | 0.39 | 86 | 1007.5 |
| 20260505175509 | 52 | 340 | 2.0 | 9.0 | 0.00 | 0.56 | 0.39 | 86 | 1007.5 |
| 20260505175003 | 52 | 28 | 4.0 | 9.0 | 0.00 | 0.56 | 0.39 | 86 | 1007.5 |
| 20260505174537 | 52 | 345 | 4.0 | 12.0 | 0.00 | 0.56 | 0.39 | 86 | 1007.5 |
| 20260505174525 | 52 | 345 | 4.0 | 12.0 | 0.00 | 0.56 | 0.39 | 86 | 1007.4 |
| 20260505174003 | 52 | 348 | 4.0 | 13.0 | 0.00 | 0.56 | 0.39 | 86 | 1007.5 |
| 20260505173504 | 52 | 5 | 5.0 | 13.0 | 0.00 | 0.56 | 0.39 | 86 | 1007.5 |
| 20260505173036 | 52 | 22 | 3.0 | 9.0 | 0.00 | 0.56 | 0.39 | 86 | 1007.4 |
| 20260505173008 | 52 | 15 | 4.0 | 9.0 | 0.00 | 0.56 | 0.39 | 86 | 1007.6 |
| 20260505172506 | 52 | 5 | 4.0 | 9.0 | 0.00 | 0.56 | 0.39 | 86 | 1007.6 |
| 20260505172010 | 52 | 40 | 3.0 | 10.0 | 0.00 | 0.56 | 0.39 | 87 | 1007.6 |
| 20260505171515 | 52 | 51 | 5.0 | 10.0 | 0.00 | 0.56 | 0.39 | 87 | 1007.5 |
| 20260505171511 | 52 | 17 | 4.0 | 10.0 | 0.00 | 0.56 | 0.39 | 87 | 1007.4 |
| 20260505171006 | 52 | 342 | 4.0 | 11.0 | 0.00 | 0.56 | 0.39 | 87 | 1007.6 |
| 20260505170510 | 52 | 346 | 5.0 | 11.0 | 0.00 | 0.56 | 0.39 | 87 | 1007.6 |
| 20260505170032 | 52 | 14 | 4.0 | 11.0 | 0.00 | 0.56 | 0.39 | 87 | 1007.6 |
| 20260505165507 | 52 | 332 | 5.0 | 11.0 | 0.00 | 0.56 | 0.39 | 87 | 1007.6 |
| 20260505165011 | 52 | 62 | 6.0 | 11.0 | 0.00 | 0.56 | 0.39 | 87 | 1007.7 |
| 20260505164519 | 52 | 153 | 5.0 | 11.0 | 0.00 | 0.56 | 0.39 | 87 | 1007.6 |
| 20260505164503 | 52 | 302 | 5.0 | 11.0 | 0.00 | 0.56 | 0.39 | 87 | 1007.8 |
| 20260505164010 | 52 | 348 | 4.0 | 10.0 | 0.00 | 0.56 | 0.39 | 87 | 1007.8 |
| 20260505163510 | 52 | 315 | 4.0 | 13.0 | 0.00 | 0.56 | 0.39 | 87 | 1007.8 |
| 20260505163028 | 52 | 348 | 6.0 | 13.0 | 0.00 | 0.56 | 0.39 | 87 | 1007.9 |
| 20260505163025 | 52 | 360 | 6.0 | 13.0 | 0.00 | 0.56 | 0.39 | 87 | 1007.7 |
| 20260505162502 | 52 | 56 | 4.0 | 11.0 | 0.00 | 0.56 | 0.39 | 87 | 1007.9 |
| 20260505162007 | 52 | 355 | 3.0 | 11.0 | 0.00 | 0.56 | 0.39 | 87 | 1008.0 |
| 20260505161529 | 52 | 355 | 3.0 | 11.0 | 0.00 | 0.56 | 0.39 | 87 | 1007.7 |
| 20260505161527 | 52 | 355 | 5.0 | 11.0 | 0.00 | 0.56 | 0.39 | 87 | 1008.0 |
| 20260505161007 | 52 | 355 | 5.0 | 11.0 | 0.00 | 0.56 | 0.39 | 87 | 1008.0 |
| 20260505160506 | 52 | 49 | 4.0 | 11.0 | 0.00 | 0.56 | 0.39 | 87 | 1008.1 |
| 20260505153019 | 52 | 41 | 3.0 | 10.0 | 0.00 | 0.56 | 0.39 | 88 | 1007.9 |
| 20260505153003 | 52 | 355 | 3.0 | 10.0 | 0.00 | 0.56 | 0.39 | 88 | 1008.3 |
| 20260505152503 | 52 | 42 | 5.0 | 9.0 | 0.00 | 0.56 | 0.39 | 88 | 1008.4 |
| 20260505152006 | 52 | 342 | 3.0 | 9.0 | 0.00 | 0.56 | 0.39 | 88 | 1008.4 |
| 20260505151533 | 52 | 92 | 2.0 | 8.0 | 0.00 | 0.56 | 0.39 | 88 | 1008.1 |
| 20260505151531 | 52 | 92 | 2.0 | 8.0 | 0.00 | 0.56 | 0.39 | 88 | 1008.5 |
| 20260505151012 | 52 | 18 | 4.0 | 10.0 | 0.00 | 0.56 | 0.39 | 88 | 1008.5 |
| 20260505150507 | 52 | 5 | 4.0 | 10.0 | 0.00 | 0.56 | 0.39 | 88 | 1008.5 |
| 20260505140505 | 51 | 49 | 6.0 | 12.0 | 0.00 | 0.56 | 0.39 | 88 | 1008.8 |
| 20260505125003 | 50 | 39 | 7.0 | 13.0 | 0.00 | 0.56 | 0.39 | 91 | 1009.2 |
| 20260505124515 | 49 | 16 | 7.0 | 12.0 | 0.00 | 0.56 | 0.39 | 91 | 1009.2 |
| 20260505124503 | 49 | 16 | 6.0 | 12.0 | 0.00 | 0.56 | 0.39 | 91 | 1009.0 |
| 20260505124008 | 49 | 41 | 7.0 | 12.0 | 0.00 | 0.56 | 0.39 | 91 | 1009.3 |
| 20260505123508 | 49 | 30 | 4.0 | 13.0 | 0.00 | 0.56 | 0.39 | 91 | 1009.3 |
| 20260505123015 | 49 | 355 | 5.0 | 13.0 | 0.00 | 0.56 | 0.39 | 91 | 1009.4 |
| 20260505123005 | 49 | 355 | 5.0 | 13.0 | 0.00 | 0.56 | 0.39 | 91 | 1009.1 |
| 20260505122508 | 49 | 61 | 6.0 | 13.0 | 0.00 | 0.56 | 0.39 | 91 | 1009.3 |
| 20260505122007 | 49 | 29 | 4.0 | 13.0 | 0.00 | 0.56 | 0.39 | 91 | 1009.4 |
| 20260505121522 | 49 | 65 | 5.0 | 13.0 | 0.00 | 0.56 | 0.39 | 91 | 1009.4 |
| 20260505121007 | 49 | 30 | 7.0 | 12.0 | 0.00 | 0.56 | 0.39 | 91 | 1009.4 |
| 20260505120514 | 49 | 49 | 4.0 | 12.0 | 0.00 | 0.56 | 0.39 | 91 | 1009.4 |
| 20260505120051 | 49 | 28 | 8.0 | 15.0 | 0.00 | 0.56 | 0.39 | 91 | 1009.2 |
| 20260505120029 | 49 | 84 | 8.0 | 15.0 | 0.00 | 0.56 | 0.39 | 91 | 1009.4 |
| 20260505115510 | 49 | 38 | 7.0 | 15.0 | 0.00 | 0.56 | 0.39 | 91 | 1009.4 |
| 20260505115020 | 49 | 25 | 8.0 | 13.0 | 0.00 | 0.56 | 0.39 | 91 | 1009.4 |
| 20260505114512 | 49 | 43 | 6.0 | 11.0 | 0.00 | 0.56 | 0.39 | 91 | 1009.2 |
| 20260505114508 | 49 | 43 | 7.0 | 12.0 | 0.00 | 0.56 | 0.39 | 91 | 1009.4 |
| 20260505114007 | 49 | 49 | 3.0 | 13.0 | 0.00 | 0.56 | 0.39 | 91 | 1009.4 |
| 20260505113508 | 49 | 65 | 9.0 | 13.0 | 0.00 | 0.56 | 0.39 | 91 | 1009.4 |
| 20260505113018 | 49 | 56 | 1.0 | 11.0 | 0.00 | 0.56 | 0.39 | 92 | 1009.5 |
| 20260505112507 | 49 | 21 | 3.0 | 11.0 | 0.00 | 0.56 | 0.39 | 92 | 1009.5 |
| 20260505112011 | 49 | 338 | 2.0 | 10.0 | 0.00 | 0.56 | 0.39 | 92 | 1009.5 |
| 20260505111520 | 49 | 322 | 3.0 | 10.0 | 0.00 | 0.56 | 0.39 | 91 | 1009.6 |
| 20260505111008 | 49 | 355 | 3.0 | 10.0 | 0.00 | 0.56 | 0.39 | 92 | 1009.6 |
| 20260505110508 | 49 | 48 | 3.0 | 12.0 | 0.00 | 0.56 | 0.39 | 92 | 1009.6 |
| 20260505102016 | 48 | 355 | 4.0 | 13.0 | 0.00 | 0.56 | 0.39 | 93 | 1009.8 |
| 20260505101515 | 48 | 60 | 5.0 | 13.0 | 0.00 | 0.56 | 0.39 | 93 | 1009.8 |
| 20260505101010 | 48 | 41 | 5.0 | 12.0 | 0.00 | 0.56 | 0.39 | 93 | 1009.8 |
| 20260505100507 | 48 | 331 | 4.0 | 12.0 | 0.00 | 0.56 | 0.39 | 93 | 1009.9 |
| 20260505100024 | 47 | 58 | 5.0 | 14.0 | 0.00 | 0.56 | 0.39 | 93 | 1009.7 |
| 20260505100022 | 47 | 35 | 4.0 | 14.0 | 0.00 | 0.56 | 0.39 | 93 | 1009.9 |
| 20260505095508 | 47 | 41 | 7.0 | 14.0 | 0.00 | 0.56 | 0.39 | 93 | 1009.9 |
| 20260505095008 | 47 | 53 | 3.0 | 10.0 | 0.00 | 0.56 | 0.39 | 93 | 1010.0 |
| 20260505094523 | 47 | 334 | 5.0 | 13.0 | 0.00 | 0.56 | 0.39 | 93 | 1010.0 |
| 20260505094504 | 47 | 330 | 6.0 | 13.0 | 0.00 | 0.56 | 0.39 | 93 | 1009.7 |
| 20260505094015 | 47 | 51 | 5.0 | 14.0 | 0.00 | 0.56 | 0.39 | 93 | 1010.0 |
| 20260505093512 | 47 | 35 | 6.0 | 14.0 | 0.00 | 0.56 | 0.39 | 93 | 1010.0 |
| 20260505093029 | 47 | 30 | 3.0 | 15.0 | 0.00 | 0.56 | 0.39 | 94 | 1010.0 |
| 20260505093008 | 47 | 47 | 3.0 | 15.0 | 0.00 | 0.56 | 0.39 | 94 | 1009.8 |
| 20260505092510 | 47 | 57 | 6.0 | 15.0 | 0.00 | 0.56 | 0.39 | 93 | 1010.0 |
| 20260505092014 | 47 | 23 | 6.0 | 14.0 | 0.00 | 0.56 | 0.39 | 94 | 1010.0 |
| 20260505091523 | 47 | 5 | 6.0 | 14.0 | 0.00 | 0.56 | 0.39 | 94 | 1009.8 |
| 20260505091512 | 47 | 40 | 6.0 | 14.0 | 0.00 | 0.56 | 0.39 | 94 | 1010.0 |
| 20260505091006 | 47 | 19 | 3.0 | 13.0 | 0.00 | 0.56 | 0.39 | 94 | 1010.1 |
| 20260505090508 | 47 | 24 | 6.0 | 14.0 | 0.00 | 0.56 | 0.39 | 94 | 1010.0 |
| 20260505090035 | 47 | 355 | 6.0 | 14.0 | 0.00 | 0.56 | 0.39 | 94 | 1009.8 |
| 20260505090015 | 47 | 355 | 6.0 | 14.0 | 0.00 | 0.56 | 0.39 | 94 | 1010.1 |
| 20260505085507 | 47 | 26 | 5.0 | 14.0 | 0.00 | 0.56 | 0.39 | 94 | 1010.0 |
| 20260505085010 | 47 | 360 | 9.0 | 14.0 | 0.00 | 0.56 | 0.39 | 94 | 1009.9 |
| 20260505084520 | 47 | 5 | 4.0 | 14.0 | 0.00 | 0.56 | 0.39 | 94 | 1009.7 |
| 20260505084011 | 47 | 19 | 3.0 | 14.0 | 0.00 | 0.56 | 0.39 | 94 | 1009.9 |
| 20260505083514 | 47 | 98 | 5.0 | 12.0 | 0.00 | 0.56 | 0.39 | 94 | 1010.0 |
| 20260505083014 | 47 | 33 | 4.0 | 11.0 | 0.00 | 0.56 | 0.39 | 94 | 1010.1 |
| 20260505083005 | 47 | 33 | 4.0 | 11.0 | 0.00 | 0.56 | 0.39 | 94 | 1009.9 |
| 20260505082504 | 46 | 334 | 5.0 | 11.0 | 0.00 | 0.56 | 0.39 | 94 | 1010.1 |
| 20260505082012 | 46 | 51 | 5.0 | 10.0 | 0.00 | 0.56 | 0.39 | 95 | 1010.1 |
| 20260505081527 | 46 | 343 | 5.0 | 17.0 | 0.00 | 0.56 | 0.39 | 94 | 1009.9 |
| 20260505081510 | 46 | 80 | 5.0 | 17.0 | 0.00 | 0.56 | 0.39 | 94 | 1010.1 |
| 20260505081018 | 46 | 332 | 6.0 | 17.0 | 0.00 | 0.56 | 0.39 | 94 | 1010.1 |
| 20260505080510 | 46 | 25 | 8.0 | 17.0 | 0.00 | 0.56 | 0.39 | 94 | 1010.2 |